Latest Weather Observations for Charles Point

IDD60901

Issued at 5:05 pm CST Sunday 23 November 2014 (issued every 10 minutes, with the page automatically refreshed every 10 minutes)

About weather observations | Map of Darwin area stations | Latest observations for Darwin area | Other Formats
Station Details ID: 014031 Name: CHARLES POINT Lat: -12.39 Lon: 130.63 Height: 14.0 m
Data from the previous 72 hours. | See also: Recent months for locations in Northern Territory
Date/Time
CST
Tmp

°C
App
Tmp
°C
Dew
Point
°C
Rel
Hum
%
Delta-T

°C
Wind Press
QNH
hPa
Press
MSL
hPa
Rain
since
9 am
mm
Dir
 
Spd
km/h
Gust
km/h
Spd
kts
Gust
kts
23/05:00pm 32.5 34.3 22.6 56 6.8 NNE 17 24 9 13 1006.9 1006.7 0.0
23/04:30pm 32.3 35.4 24.1 62 5.7 NNE 15 22 8 12 1007.4 1007.2 0.0
23/04:00pm 31.8 35.2 24.7 66 5.0 NNE 15 24 8 13 1007.7 1007.5 0.0
23/03:30pm 32.2 35.8 25.0 65 5.1 NNE 15 22 8 12 1008.0 1007.8 0.0
23/03:00pm 31.4 34.5 24.8 68 4.6 NNE 17 22 9 12 1008.3 1008.1 0.0
23/02:30pm 31.3 33.5 24.2 66 5.0 N 20 26 11 14 1008.7 1008.5 0.0
23/02:00pm 31.1 33.4 24.5 68 4.6 N 20 22 11 12 1009.0 1008.8 0.0
23/01:30pm 31.5 34.0 24.4 66 5.0 N 19 22 10 12 1009.6 1009.4 0.0
23/01:00pm 30.9 33.4 23.8 66 4.9 N 17 20 9 11 1010.0 1009.8 0.0
23/12:30pm 31.0 33.5 23.1 63 5.4 N 15 19 8 10 1010.6 1010.4 0.0
23/12:00pm 31.0 34.0 23.4 64 5.2 N 13 17 7 9 1011.0 1010.8 0.0
23/11:30am 31.1 34.3 23.7 64 5.1 N 13 17 7 9 1011.5 1011.4 0.0
23/11:00am 30.9 34.4 22.8 62 5.5 NNE 9 15 5 8 1011.9 1011.8 0.0
23/10:30am 31.2 34.4 23.0 61 5.6 NNE 11 15 6 8 1012.1 1012.0 0.0
23/10:00am 30.9 34.6 23.3 64 5.2 NNE 9 15 5 8 1012.1 1012.0 0.0
23/09:30am 30.7 34.3 23.1 64 5.2 NE 9 17 5 9 1012.2 1012.1 0.0
23/09:00am 30.4 33.6 23.1 65 5.0 NE 11 17 6 9 1012.1 1012.0 0.2
23/08:30am 30.0 33.5 22.9 65 4.9 NE 9 15 5 8 1012.0 1011.9 0.2
23/08:00am 29.9 33.1 23.1 67 4.7 NE 11 19 6 10 1011.9 1011.8 0.2
23/07:30am 29.6 33.2 23.8 71 4.0 NNE 11 17 6 9 1011.6 1011.5 0.2
23/07:00am 29.2 32.9 23.9 73 3.7 NE 11 17 6 9 1011.2 1011.0 0.2
23/06:30am 29.3 32.8 23.5 71 4.0 NNE 11 17 6 9 1010.9 1010.7 0.2
23/06:00am 29.2 33.6 23.4 71 4.0 NNE 6 11 3 6 1010.5 1010.3 0.2
23/05:30am 29.2 33.4 23.2 70 4.1 NE 6 7 3 4 1010.1 1009.9 0.2
23/05:00am 28.7 33.6 23.1 71 3.8 N 2 7 1 4 1010.0 1009.8 0.2
23/04:30am 29.3 33.1 23.5 71 4.0 N 9 13 5 7 1009.9 1009.7 0.2
23/04:00am 29.0 33.7 23.4 72 3.8 NNW 4 7 2 4 1009.8 1009.6 0.2
23/03:30am 29.1 34.1 23.8 73 3.7 NNW 4 9 2 5 1009.7 1009.5 0.2
23/03:00am 28.8 33.3 23.7 74 3.5 NW 6 9 3 5 1009.7 1009.5 0.2
23/02:30am 28.4 32.8 23.5 75 3.4 WNW 6 7 3 4 1009.8 1009.6 0.2
23/02:00am 28.7 33.0 23.6 74 3.5 WNW 7 9 4 5 1010.0 1009.8 0.2
23/01:30am 29.2 33.1 23.6 72 3.9 NW 9 13 5 7 1010.2 1010.0 0.2
23/01:00am 29.4 32.8 24.0 72 3.7 NNW 13 17 7 9 1010.5 1010.3 0.2
23/12:30am 29.5 33.5 24.4 74 3.6 NW 11 17 6 9 1010.8 1010.6 0.2
23/12:00am 29.4 32.6 24.3 74 3.6 NW 15 20 8 11 1010.9 1010.7 0.2
 
Date/Time
CST
Tmp

°C
App
Tmp
°C
Dew
Point
°C
Rel
Hum
%
Delta-T

°C
Wind Press
QNH
hPa
Press
MSL
hPa
Rain
since
9 am
mm
Dir
 
Spd
km/h
Gust
km/h
Spd
kts
Gust
kts
22/11:30pm 29.6 33.1 24.2 73 3.8 NW 13 20 7 11 1011.1 1010.9 0.2
22/11:00pm 29.7 32.4 24.1 72 3.9 NW 17 24 9 13 1010.9 1010.7 0.2
22/10:30pm 29.9 32.3 24.3 72 3.9 NW 19 26 10 14 1010.6 1010.4 0.2
22/10:00pm 30.1 32.4 24.5 72 3.9 NNW 20 32 11 17 1010.6 1010.4 0.2
22/09:30pm 30.2 33.0 25.3 75 3.5 NW 20 28 11 15 1010.3 1010.1 0.2
22/09:00pm 30.6 34.0 24.0 68 4.6 WNW 13 22 7 12 1010.0 1009.8 0.2
22/08:30pm 29.8 35.0 23.5 69 4.3 S 2 4 1 2 1009.9 1009.7 0.2
22/08:00pm 30.2 34.8 23.1 65 4.9 S 4 9 2 5 1009.7 1009.5 0.2
22/07:30pm 30.8 35.0 22.4 61 5.7 SSW 4 6 2 3 1009.3 1009.1 0.2
22/07:00pm 31.0 35.3 22.6 61 5.7 SW 4 7 2 4 1009.1 1008.9 0.2
22/06:30pm 32.0 36.0 22.1 55 6.7 W 4 7 2 4 1008.7 1008.5 0.2
22/06:00pm 32.4 36.1 22.5 56 6.8 WNW 7 11 4 6 1008.4 1008.2 0.2
22/05:30pm 32.9 36.7 22.4 54 7.2 NW 6 7 3 4 1008.1 1007.9 0.2
22/05:00pm 32.0 35.8 22.4 57 6.6 NW 6 9 3 5 1007.8 1007.6 0.2
22/04:30pm 31.9 35.8 22.9 59 6.2 N 7 11 4 6 1007.5 1007.3 0.2
22/04:00pm 31.9 35.3 23.4 60 5.9 N 11 15 6 8 1007.8 1007.6 0.2
22/03:30pm 32.3 35.9 23.8 61 5.9 NNW 11 17 6 9 1008.5 1008.3 0.2
22/03:00pm 31.4 33.9 23.8 64 5.3 N 17 20 9 11 1008.9 1008.7 0.2
22/02:30pm 31.4 34.3 23.8 64 5.3 N 15 19 8 10 1009.4 1009.2 0.2
22/02:00pm 31.6 34.7 24.2 65 5.2 N 15 20 8 11 1009.8 1009.6 0.2
22/01:30pm 31.1 34.1 24.0 66 4.9 N 15 20 8 11 1010.2 1010.0 0.2
22/01:00pm 31.3 34.4 24.2 66 5.0 N 15 20 8 11 1010.5 1010.3 0.2
22/12:30pm 31.3 33.9 23.9 64 5.1 N 17 20 9 11 1011.2 1011.0 0.2
22/12:00pm 31.0 34.3 23.9 66 4.9 N 13 17 7 9 1011.5 1011.4 0.2
22/11:30am 31.2 35.1 23.6 64 5.3 N 9 13 5 7 1011.9 1011.8 0.2
22/11:00am 31.4 36.1 24.3 66 5.0 NNE 7 11 4 6 1012.3 1012.2 0.2
22/10:30am 31.4 35.9 24.0 65 5.2 NE 7 9 4 5 1012.4 1012.3 0.2
22/10:00am 30.9 35.3 23.8 66 4.9 NE 7 11 4 6 1012.6 1012.5 0.0
22/09:30am 31.0 35.8 24.4 68 4.6 ENE 7 11 4 6 1012.5 1012.4 0.0
22/09:00am 28.8 34.6 24.6 78 2.9 SSW 2 7 1 4 1012.4 1012.3 0.8
22/08:30am 29.6 35.2 24.2 73 3.8 ENE 2 6 1 3 1012.0 1011.9 0.0
22/08:00am 29.8 35.2 23.3 68 4.5 CALM 0 2 0 1 1011.7 1011.6 0.0
22/07:30am 30.0 35.1 22.7 65 5.0 CALM 0 0 0 0 1011.4 1011.2 0.0
22/07:00am 28.4 34.0 23.5 75 3.4 CALM 0 0 0 0 1011.0 1010.8 0.0
22/06:30am 26.8 32.4 23.5 82 2.3 CALM 0 0 0 0 1010.4 1010.2 0.0
22/06:00am 26.8 32.4 23.5 82 2.3 CALM 0 0 0 0 1009.9 1009.7 0.0
22/05:30am 27.1 32.5 23.3 80 2.6 CALM 0 0 0 0 1009.7 1009.5 0.0
22/05:00am 27.7 32.4 23.3 77 3.0 WSW 4 6 2 3 1009.6 1009.4 0.0
22/04:30am 28.3 32.9 23.2 74 3.5 W 4 9 2 5 1009.1 1008.9 0.0
22/04:00am 28.6 32.9 23.3 73 3.6 W 6 13 3 7 1009.1 1008.9 0.0
22/03:30am 28.9 32.4 23.6 73 3.7 WNW 11 15 6 8 1008.9 1008.7 0.0
22/03:00am 28.9 32.7 24.0 75 3.4 WNW 11 15 6 8 1008.9 1008.7 0.0
22/02:30am 29.0 32.6 23.7 73 3.7 NW 11 19 6 10 1008.9 1008.7 0.0
22/02:00am 29.0 32.6 23.7 73 3.7 NW 11 17 6 9 1009.1 1008.9 0.0
22/01:30am 29.0 32.4 24.1 75 3.4 NNW 13 20 7 11 1009.3 1009.1 0.0
22/01:00am 29.1 32.0 24.4 76 3.3 NNW 17 22 9 12 1009.7 1009.5 0.0
22/12:30am 29.3 32.8 24.8 77 3.2 NNW 15 22 8 12 1010.2 1010.0 0.0
22/12:00am 29.1 33.7 23.1 70 4.1 NW 4 7 2 4 1010.9 1010.7 0.0
 
Date/Time
CST
Tmp

°C
App
Tmp
°C
Dew
Point
°C
Rel
Hum
%
Delta-T

°C
Wind Press
QNH
hPa
Press
MSL
hPa
Rain
since
9 am
mm
Dir
 
Spd
km/h
Gust
km/h
Spd
kts
Gust
kts
21/11:30pm 29.7 33.6 22.9 67 4.7 WNW 7 9 4 5 1010.9 1010.7 0.0
21/11:00pm 29.7 33.6 23.6 69 4.2 NW 9 15 5 8 1010.9 1010.7 0.0
21/10:30pm 29.8 33.4 23.7 70 4.2 NW 11 17 6 9 1010.7 1010.5 0.0
21/10:00pm 29.8 33.4 24.4 73 3.8 WNW 13 17 7 9 1010.5 1010.3 0.0
21/09:30pm 30.0 33.4 24.6 73 3.8 NW 15 19 8 10 1009.9 1009.7 0.0
21/09:00pm 30.1 33.8 24.5 72 3.9 WNW 13 15 7 8 1009.7 1009.5 0.0
21/08:30pm 30.1 33.1 24.0 70 4.2 WNW 15 20 8 11 1009.5 1009.3 0.0
21/08:00pm 30.3 33.3 24.0 69 4.4 NW 15 20 8 11 1009.0 1008.8 0.0
21/07:30pm 30.3 33.3 24.0 69 4.4 NW 15 22 8 12 1008.5 1008.3 0.0
21/07:00pm 30.4 33.3 23.8 68 4.6 NW 15 20 8 11 1008.4 1008.2 0.0
21/06:30pm 30.7 33.8 24.1 68 4.6 NW 15 20 8 11 1008.2 1008.0 0.0
21/06:00pm 31.4 34.6 24.3 66 5.0 NW 15 22 8 12 1008.1 1007.9 0.0
21/05:30pm 31.7 34.6 23.8 63 5.5 NNW 15 20 8 11 1007.9 1007.7 0.0
21/05:00pm 32.3 35.7 23.3 59 6.2 NNW 11 17 6 9 1008.1 1007.9 0.0
21/04:30pm 31.9 34.8 23.2 60 6.0 N 13 15 7 8 1008.2 1008.0 0.0
21/04:00pm 32.0 35.1 23.5 60 5.9 N 13 17 7 9 1008.1 1007.9 0.0
21/03:30pm 32.3 35.5 23.0 58 6.4 N 11 15 6 8 1008.4 1008.2 0.0
21/03:00pm 32.6 36.3 23.3 58 6.4 NNW 9 13 5 7 1008.3 1008.1 0.0
21/02:30pm 32.7 36.4 23.3 57 6.5 NNW 9 13 5 7 1008.8 1008.6 0.0
21/02:00pm 32.7 36.4 23.9 60 6.1 NW 11 17 6 9 1009.4 1009.2 0.0
21/01:30pm 32.1 35.6 24.2 63 5.5 NNW 13 19 7 10 1009.8 1009.6 0.0
21/01:00pm 31.8 35.2 23.3 60 5.9 NNW 11 19 6 10 1010.3 1010.1 0.0
21/12:30pm 31.7 35.3 23.8 63 5.5 NNW 11 17 6 9 1010.7 1010.5 0.0
21/12:00pm 31.3 34.5 23.7 64 5.3 NNW 13 19 7 10 1011.0 1010.8 0.0
21/11:30am 31.0 34.4 23.4 64 5.2 N 11 17 6 9 1011.4 1011.2 0.0
21/11:00am 30.9 34.0 23.5 64 5.1 N 13 17 7 9 1011.7 1011.6 0.0
21/10:30am 30.8 33.9 23.5 65 5.0 N 13 15 7 8 1012.1 1012.0 0.0
21/10:00am 31.1 35.4 23.7 64 5.1 N 7 11 4 6 1012.3 1012.2 0.0
21/09:30am 30.5 34.8 23.7 67 4.7 N 7 11 4 6 1012.3 1012.2 0.0
21/09:00am 30.6 35.0 23.5 66 4.9 N 6 7 3 4 1012.4 1012.3 0.0
21/08:30am 30.3 35.2 23.7 68 4.6 NNW 4 7 2 4 1012.1 1012.0 0.0
21/08:00am 30.0 35.3 23.7 69 4.4 NW 2 4 1 2 1011.8 1011.7 0.0
21/07:30am 29.4 33.9 23.6 71 4.0 N 6 9 3 5 1011.6 1011.5 0.0
21/07:00am 29.0 33.9 23.7 73 3.7 N 4 7 2 4 1011.3 1011.1 0.0
21/06:30am 28.9 33.5 23.8 74 3.5 NNW 6 9 3 5 1010.9 1010.7 0.0
21/06:00am 28.9 33.0 24.0 75 3.4 N 9 13 5 7 1010.5 1010.3 0.0
21/05:30am 29.0 33.1 23.9 74 3.5 N 9 13 5 7 1010.1 1009.9 0.0
21/05:00am 28.9 33.3 23.8 74 3.5 N 7 13 4 7 1010.1 1009.9 0.0
21/04:30am 27.9 33.0 23.3 76 3.2 NNW 2 7 1 4 1009.7 1009.5 0.0
21/04:00am 29.0 33.4 23.4 72 3.8 NNW 6 11 3 6 1009.5 1009.3 0.0
21/03:30am 28.9 33.0 23.3 72 3.8 NNW 7 11 4 6 1009.4 1009.2 0.0
21/03:00am 29.1 32.9 24.0 74 3.5 N 11 15 6 8 1009.6 1009.4 0.0
21/02:30am 29.1 33.4 24.2 75 3.4 NW 9 15 5 8 1009.7 1009.5 0.0
21/02:00am 29.1 33.0 24.2 75 3.4 NW 11 19 6 10 1009.6 1009.4 0.0
21/01:30am 29.1 32.6 24.2 75 3.4 NW 13 17 7 9 1009.7 1009.5 0.0
21/01:00am 29.1 32.5 24.0 74 3.5 NW 13 19 7 10 1009.8 1009.6 0.0
21/12:30am 29.1 32.6 24.2 75 3.4 NW 13 20 7 11 1010.0 1009.8 0.0
21/12:00am 29.2 32.2 24.7 77 3.1 NNW 17 20 9 11 1010.2 1010.0 0.0
 
Date/Time
CST
Tmp

°C
App
Tmp
°C
Dew
Point
°C
Rel
Hum
%
Delta-T

°C
Wind Press
QNH
hPa
Press
MSL
hPa
Rain
since
9 am
mm
Dir
 
Spd
km/h
Gust
km/h
Spd
kts
Gust
kts
20/11:30pm 29.3 32.3 24.6 76 3.3 NNW 17 26 9 14 1010.1 1009.9 0.0
20/11:00pm 29.5 32.5 24.6 75 3.4 NNW 17 22 9 12 1010.2 1010.0 0.0
20/10:30pm 29.5 32.7 24.4 74 3.6 NW 15 22 8 12 1010.1 1009.9 0.0
20/10:00pm 29.8 33.1 25.1 76 3.3 NW 17 24 9 13 1010.0 1009.8 0.0
20/09:30pm 30.0 33.4 24.6 73 3.8 NW 15 22 8 12 1009.9 1009.7 0.0
20/09:00pm 30.1 32.6 24.5 72 3.9 NW 19 22 10 12 1009.8 1009.6 0.0
20/08:30pm 30.6 33.5 24.5 70 4.3 NW 17 22 9 12 1009.4 1009.2 0.0
20/08:00pm 30.7 34.2 23.6 66 4.9 WNW 11 15 6 8 1009.0 1008.8 0.0
20/07:30pm 30.3 34.3 22.7 64 5.2 W 6 9 3 5 1008.9 1008.7 0.0
20/07:00pm 30.5 34.5 22.7 63 5.3 SW 6 11 3 6 1008.5 1008.3 0.0
20/06:30pm 31.1 34.7 22.4 60 5.9 W 7 11 4 6 1008.1 1007.9 0.0
20/06:00pm 31.9 34.7 22.3 56 6.6 WNW 11 17 6 9 1007.8 1007.6 0.0
20/05:30pm 32.3 35.7 22.7 57 6.6 WNW 9 15 5 8 1007.8 1007.6 0.0

Latest Capital City Observations: Canberra | Sydney | Melbourne | Brisbane | Adelaide | Perth | Hobart | Darwin

Other Formats:

Comma delimited format used in spreadsheet applications
http://www.bom.gov.au/fwo/IDD60901/IDD60901.99510.axf

JavaScript Object Notation format (JSON) in row-major order
http://www.bom.gov.au/fwo/IDD60901/IDD60901.99510.json